Regional Weather Roundup
Issued by NWS Northern Indiana

Home | Current Version | Previous Version | Graphics & Text | Print | Product List | Glossary On
Versions: 1 2 3 4 5 6 7 8 9 10 11 12 13 14 15 16 17 18 19 20 21 22 23 24 25 26 27 28 29 30 31 32 33 34 35 36 37 38 39 40 41 42 43 44 45 46 47 48 49 50
000
ASUS43 KIWX 232110
RWRIWX

KIWX WEATHER ROUNDUP
NATIONAL WEATHER SERVICE NORTHERN INDIANA
500 PM EDT SUN JUL 23 2017

NOTE: "FAIR" INDICATES FEW OR NO CLOUDS BELOW 12,000 FEET WITH NO
SIGNIFICANT WEATHER AND/OR OBSTRUCTIONS TO VISIBILITY.

* THESE STATIONS ARE NOT UNDER NWS QUALITY CONTROL. THEY ALSO MAY NOT
  REPORT WEATHER SUCH AS PRECIPITATION OR FOG.

INZ001>027-232200-
NORTHERN INDIANA

CITY           SKY/WX    TMP DP  RH WIND       PRES   REMARKS
GARY*          MOSUNNY   88  66  48 NE6       29.77F
VALPARAISO     SUNNY     88  62  41 NE6       29.78F
MICHIGAN CITY* SUNNY     82  64  54 N6        29.79S
LAPORTE*       SUNNY     84  61  46 N12       29.79F
KNOX*          SUNNY     84  64  51 N8        29.78S
SOUTH BEND     SUNNY     84  67  56 NW13      29.78S
ELKHART*       MOSUNNY   84  66  54 NW12G17   29.78S
GOSHEN         SUNNY     86  64  47 W16       29.77R
MONTICELLO*    MOSUNNY   84  69  60 N6        29.79R
LOGANSPORT*    PTSUNNY   73  64  73 CALM      29.81S
ROCHESTER*     MOSUNNY   86  64  48 W6        29.79F
WARSAW*        MOSUNNY   84  66  54 NW15      29.77S
AUBURN*        HVY RAIN  68  61  77 S5G35     29.79R VSB 3/4
FORT WAYNE     PTSUNNY   84  70  62 W9        29.77S
HUNTINGTON*    PTSUNNY   82  71  69 NW3       29.77S
PERU/GRISSOM   PTSUNNY   75  70  83 W13       29.79R
MARION*        PTSUNNY   82  72  69 W9        29.79F

$$
INZ028>050-232200-
CENTRAL INDIANA

CITY           SKY/WX    TMP DP  RH WIND       PRES   REMARKS
LAFAYETTE      PTSUNNY   86  73  65 W14       29.79R
KOKOMO*        TSTM      73  68  84 W26G33    29.83R
MUNCIE*        PTSUNNY   85  69  58 W9        29.80R
INDIANAPOLIS   CLOUDY    76  68  76 SW10      29.82R

$$
MIZ043>046-050>051-056>058-064>065-071>073-077>080-232200-
SOUTHWEST LOWER MICHIGAN

CITY           SKY/WX    TMP DP  RH WIND       PRES   REMARKS
BATTLE CREEK   MOSUNNY   86  67  52 NW15G22   29.77S
BENTON HARBOR  MOSUNNY   81  67  62 VRB3      29.78S
COLDWATER*     PTSUNNY   83  68  60 NW10      29.76S
HILLSDALE*     CLOUDY    81  68  65 N5        29.76F
HOLLAND        CLOUDY    77  69  76 NW8       29.79S
GRAND RAPIDS   PTSUNNY   83  66  56 NW13      29.76S
KALAMAZOO      MOSUNNY   86  65  49 N15       29.76F
STURGIS*       SUNNY     83  68  59 NW8       29.76S
THREE RIVERS*  FAIR      84  65  53 NW12G20   29.77S

$$
OHZ001>008-015>018-024>025-232200-
NORTHWEST OHIO

CITY           SKY/WX    TMP DP  RH WIND       PRES   REMARKS
WAUSEON*       LGT RAIN  75  68  78 MISG      29.77R
DEFIANCE       MOSUNNY  N/A N/A N/A VRB6      29.74F
FINDLAY        CLOUDY    84  73  69 W9        29.74F
TOLEDO EXPRESS CLOUDY    75  66  73 N14G24    29.75R
TOLEDO METCALF PTSUNNY   79  67  66 N15G22    29.76R
LIMA           CLOUDY    81  72  74 NW8       29.76F

$$
AND FOR LAKE MICHIGAN COASTAL AND OPEN LAKE BUOY OBSERVATIONS

STATION/POSITION TEMP    WIND        PRES    VSBY  WAVE
                 AIR SEA DIR/SP/G                  HT/PER
                 (F)     (DEG/KT/KT) (MB)    (MI)  (FT/S)
CALUMET HARBOR    83      40/  6/ 12 1007.5F
MICHIGAN CITY     78      20/  6/  6   N/A
BURNS HARBOR      83      70/  6/  7 1008.5F
SAINT JOSEPH      79     360/  7/  9 1009.8
SOUTH LAKE BUOY   74 72  360/  4/  6 1008.4F         0
4 MI NW BRIDGMAN  77 76   20/  8/ 10 1008.1          1
MICHIGAN CITY     79 78   50/  6/  8   N/A           1

$$
&&




USA.gov is the U.S. government's official web portal to all federal, state and local government web resources and services.